Year,Month,Day,Hour,Minute,Value (Times are PST for temperature in C)
2017,08,16,00,00,15.80
2017,08,16,00,01,15.80
2017,08,16,00,02,15.80
2017,08,16,00,03,15.80
2017,08,16,00,04,15.80
2017,08,16,00,05,15.80
2017,08,16,00,06,15.80
2017,08,16,00,07,15.80
2017,08,16,00,08,15.70
2017,08,16,00,09,15.70
2017,08,16,00,10,15.70
2017,08,16,00,11,15.70
2017,08,16,00,12,15.70
2017,08,16,00,13,15.60
2017,08,16,00,14,15.60
2017,08,16,00,15,15.60
2017,08,16,00,16,15.60
2017,08,16,00,17,15.60
2017,08,16,00,18,15.60
2017,08,16,00,19,15.60
2017,08,16,00,20,15.50
2017,08,16,00,21,15.50
2017,08,16,00,22,15.50
2017,08,16,00,23,15.50
2017,08,16,00,24,15.50
2017,08,16,00,25,15.50
2017,08,16,00,26,15.50
2017,08,16,00,27,15.50
2017,08,16,00,28,15.50
2017,08,16,00,29,15.50
2017,08,16,00,30,15.40
2017,08,16,00,31,15.40
2017,08,16,00,32,15.40
2017,08,16,00,33,15.40
2017,08,16,00,34,15.30
2017,08,16,00,35,15.30
2017,08,16,00,36,15.30
2017,08,16,00,37,15.30
2017,08,16,00,38,15.30
2017,08,16,00,39,15.30
2017,08,16,00,40,15.30
2017,08,16,00,41,15.30
2017,08,16,00,42,15.30
2017,08,16,00,43,15.30
2017,08,16,00,44,15.20
2017,08,16,00,45,15.20
2017,08,16,00,46,15.20
2017,08,16,00,47,15.20
2017,08,16,00,48,15.20
2017,08,16,00,49,15.20
2017,08,16,00,50,15.10
2017,08,16,00,51,15.10
2017,08,16,00,52,15.10
2017,08,16,00,53,15.10
2017,08,16,00,54,15.10
2017,08,16,00,55,15.00
2017,08,16,00,56,15.00
2017,08,16,00,57,15.00
2017,08,16,00,58,14.90
2017,08,16,00,59,14.90
2017,08,16,01,00,14.90
2017,08,16,01,01,14.90
2017,08,16,01,02,14.90
2017,08,16,01,03,14.90
2017,08,16,01,04,14.90
2017,08,16,01,05,14.90
2017,08,16,01,06,14.90
2017,08,16,01,07,14.90
2017,08,16,01,08,14.90
2017,08,16,01,09,14.90
2017,08,16,01,10,14.90
2017,08,16,01,11,14.90
2017,08,16,01,12,14.90
2017,08,16,01,13,14.90
2017,08,16,01,14,14.90
2017,08,16,01,15,14.90
2017,08,16,01,16,14.90
2017,08,16,01,17,14.90
2017,08,16,01,18,14.90
2017,08,16,01,19,14.90
2017,08,16,01,20,14.90
2017,08,16,01,21,14.90
2017,08,16,01,22,14.90
2017,08,16,01,23,14.90
2017,08,16,01,24,14.90
2017,08,16,01,25,14.90
2017,08,16,01,26,14.90
2017,08,16,01,27,14.90
2017,08,16,01,28,14.90
2017,08,16,01,29,14.90
2017,08,16,01,30,14.90
2017,08,16,01,31,14.90
2017,08,16,01,32,14.90
2017,08,16,01,33,14.90
2017,08,16,01,34,14.80
2017,08,16,01,35,14.80
2017,08,16,01,36,14.80
2017,08,16,01,37,14.80
2017,08,16,01,38,14.80
2017,08,16,01,39,14.80
2017,08,16,01,40,14.80
2017,08,16,01,41,14.80
2017,08,16,01,42,14.80
2017,08,16,01,43,14.80
2017,08,16,01,44,14.80
2017,08,16,01,45,14.80
2017,08,16,01,46,14.70
2017,08,16,01,47,14.70
2017,08,16,01,48,14.70
2017,08,16,01,49,14.70
2017,08,16,01,50,14.70
2017,08,16,01,51,14.70
2017,08,16,01,52,14.70
2017,08,16,01,53,14.70
2017,08,16,01,54,14.60
2017,08,16,01,55,14.60
2017,08,16,01,56,14.60
2017,08,16,01,57,14.60
2017,08,16,01,58,14.60
2017,08,16,01,59,14.50
2017,08,16,02,00,14.50
2017,08,16,02,01,14.50
2017,08,16,02,02,14.50
2017,08,16,02,03,14.50
2017,08,16,02,04,14.50
2017,08,16,02,05,14.50
2017,08,16,02,06,14.50
2017,08,16,02,07,14.50
2017,08,16,02,08,14.50
2017,08,16,02,09,14.50
2017,08,16,02,10,14.50
2017,08,16,02,11,14.50
2017,08,16,02,12,14.50
2017,08,16,02,13,14.50
2017,08,16,02,14,14.50
2017,08,16,02,15,14.50
2017,08,16,02,16,14.50
2017,08,16,02,17,14.50
2017,08,16,02,18,14.50
2017,08,16,02,19,14.40
2017,08,16,02,20,14.40
2017,08,16,02,21,14.40
2017,08,16,02,22,14.40
2017,08,16,02,23,14.40
2017,08,16,02,24,14.40
2017,08,16,02,25,14.40
2017,08,16,02,26,14.30
2017,08,16,02,27,14.30
2017,08,16,02,28,14.30
2017,08,16,02,29,14.30
2017,08,16,02,30,14.30
2017,08,16,02,31,14.30
2017,08,16,02,32,14.30
2017,08,16,02,33,14.30
2017,08,16,02,34,14.30
2017,08,16,02,35,14.20
2017,08,16,02,36,14.20
2017,08,16,02,37,14.20
2017,08,16,02,38,14.20
2017,08,16,02,39,14.20
2017,08,16,02,40,14.20
2017,08,16,02,41,14.20
2017,08,16,02,42,14.20
2017,08,16,02,43,14.20
2017,08,16,02,44,14.20
2017,08,16,02,45,14.20
2017,08,16,02,46,14.20
2017,08,16,02,47,14.20
2017,08,16,02,48,14.20
2017,08,16,02,49,14.20
2017,08,16,02,50,14.20
2017,08,16,02,51,14.20
2017,08,16,02,52,14.20
2017,08,16,02,53,14.20
2017,08,16,02,54,14.20
2017,08,16,02,55,14.10
2017,08,16,02,56,14.10
2017,08,16,02,57,14.10
2017,08,16,02,58,14.10
2017,08,16,02,59,14.10
2017,08,16,03,00,14.10
2017,08,16,03,01,14.10
2017,08,16,03,02,14.10
2017,08,16,03,03,14.10
2017,08,16,03,04,14.10
2017,08,16,03,05,14.10
2017,08,16,03,06,14.10
2017,08,16,03,07,14.10
2017,08,16,03,08,14.10
2017,08,16,03,09,14.00
2017,08,16,03,10,14.00
2017,08,16,03,11,14.00
2017,08,16,03,12,14.00
2017,08,16,03,13,14.00
2017,08,16,03,14,14.00
2017,08,16,03,15,14.00
2017,08,16,03,16,14.00
2017,08,16,03,17,14.00
2017,08,16,03,18,14.00
2017,08,16,03,19,14.00
2017,08,16,03,20,14.00
2017,08,16,03,21,14.00
2017,08,16,03,22,14.00
2017,08,16,03,23,14.00
2017,08,16,03,24,14.00
2017,08,16,03,25,14.00
2017,08,16,03,26,14.00
2017,08,16,03,27,14.00
2017,08,16,03,28,14.00
2017,08,16,03,29,14.00
2017,08,16,03,30,14.00
2017,08,16,03,31,14.00
2017,08,16,03,32,14.00
2017,08,16,03,33,14.10
2017,08,16,03,34,14.10
2017,08,16,03,35,14.10
2017,08,16,03,36,14.10
2017,08,16,03,37,14.00
2017,08,16,03,38,14.00
2017,08,16,03,39,14.00
2017,08,16,03,40,14.00
2017,08,16,03,41,14.00
2017,08,16,03,42,14.00
2017,08,16,03,43,14.00
2017,08,16,03,44,14.00
2017,08,16,03,45,14.00
2017,08,16,03,46,14.00
2017,08,16,03,47,14.00
2017,08,16,03,48,14.00
2017,08,16,03,49,14.10
2017,08,16,03,50,14.10
2017,08,16,03,51,14.10
2017,08,16,03,52,14.10
2017,08,16,03,53,14.20
2017,08,16,03,54,14.20
2017,08,16,03,55,14.20
2017,08,16,03,56,14.30
2017,08,16,03,57,14.30
2017,08,16,03,58,14.40
2017,08,16,03,59,14.40
2017,08,16,04,00,14.40
2017,08,16,04,01,14.50
2017,08,16,04,02,14.50
2017,08,16,04,03,14.50
2017,08,16,04,04,14.60
2017,08,16,04,05,14.60
2017,08,16,04,06,14.60
2017,08,16,04,07,14.60
2017,08,16,04,08,14.60
2017,08,16,04,09,14.70
2017,08,16,04,10,14.70
2017,08,16,04,11,14.70
2017,08,16,04,12,14.70
2017,08,16,04,13,14.70
2017,08,16,04,14,14.70
2017,08,16,04,15,14.80
2017,08,16,04,16,14.80
2017,08,16,04,17,14.90
2017,08,16,04,18,15.00
2017,08,16,04,19,15.00
2017,08,16,04,20,15.00
2017,08,16,04,21,15.10
2017,08,16,04,22,15.10
2017,08,16,04,23,15.10
2017,08,16,04,24,15.10
2017,08,16,04,25,15.10
2017,08,16,04,26,15.10
2017,08,16,04,27,15.20
2017,08,16,04,28,15.20
2017,08,16,04,29,15.20
2017,08,16,04,30,15.20
2017,08,16,04,31,15.20
2017,08,16,04,32,15.20
2017,08,16,04,33,15.20
2017,08,16,04,34,15.20
2017,08,16,04,35,15.20
2017,08,16,04,36,15.20
2017,08,16,04,37,15.20
2017,08,16,04,38,15.20
2017,08,16,04,39,15.20
2017,08,16,04,40,15.20
2017,08,16,04,41,15.20
2017,08,16,04,42,15.10
2017,08,16,04,43,15.10
2017,08,16,04,44,15.10
2017,08,16,04,45,15.10
2017,08,16,04,46,15.10
2017,08,16,04,47,15.10
2017,08,16,04,48,15.10
2017,08,16,04,49,15.10
2017,08,16,04,50,15.00
2017,08,16,04,51,15.00
2017,08,16,04,52,15.00
2017,08,16,04,53,14.90
2017,08,16,04,54,14.90
2017,08,16,04,55,14.90
2017,08,16,04,56,14.90
2017,08,16,04,57,14.90
2017,08,16,04,58,14.90
2017,08,16,04,59,14.90
2017,08,16,05,00,14.80
2017,08,16,05,01,14.80
2017,08,16,05,02,14.80
2017,08,16,05,03,14.80
2017,08,16,05,04,14.80
2017,08,16,05,05,14.80
2017,08,16,05,06,14.80
2017,08,16,05,07,14.70
2017,08,16,05,08,14.70
2017,08,16,05,09,14.70
2017,08,16,05,10,14.70
2017,08,16,05,11,14.70
2017,08,16,05,12,14.70
2017,08,16,05,13,14.70
2017,08,16,05,14,14.60
2017,08,16,05,15,14.60
2017,08,16,05,16,14.60
2017,08,16,05,17,14.60
2017,08,16,05,18,14.50
2017,08,16,05,19,14.50
2017,08,16,05,20,14.50
2017,08,16,05,21,14.50
2017,08,16,05,22,14.50
2017,08,16,05,23,14.40
2017,08,16,05,24,14.40
2017,08,16,05,25,14.40
2017,08,16,05,26,14.40
2017,08,16,05,27,14.30
2017,08,16,05,28,14.30
2017,08,16,05,29,14.30
2017,08,16,05,30,14.30
2017,08,16,05,31,14.20
2017,08,16,05,32,14.20
2017,08,16,05,33,14.20
2017,08,16,05,34,14.10
2017,08,16,05,35,14.10
2017,08,16,05,36,14.00
2017,08,16,05,37,14.00
2017,08,16,05,38,13.90
2017,08,16,05,39,13.90
2017,08,16,05,40,13.80
2017,08,16,05,41,13.80
2017,08,16,05,42,13.80
2017,08,16,05,43,13.80
2017,08,16,05,44,13.80
2017,08,16,05,45,13.70
2017,08,16,05,46,13.70
2017,08,16,05,47,13.70
2017,08,16,05,48,13.70
2017,08,16,05,49,13.70
2017,08,16,05,50,13.70
2017,08,16,05,51,13.70
2017,08,16,05,52,13.70
2017,08,16,05,53,13.70
2017,08,16,05,54,13.80
2017,08,16,05,55,13.80
2017,08,16,05,56,13.80
2017,08,16,05,57,13.80
2017,08,16,05,58,13.80
2017,08,16,05,59,13.80
2017,08,16,06,00,13.80
2017,08,16,06,01,13.80
2017,08,16,06,02,13.80
2017,08,16,06,03,13.80
2017,08,16,06,04,13.80
2017,08,16,06,05,13.80
2017,08,16,06,06,13.80
2017,08,16,06,07,13.80
2017,08,16,06,08,13.80
2017,08,16,06,09,13.80
2017,08,16,06,10,13.80
2017,08,16,06,11,13.80
2017,08,16,06,12,13.80
2017,08,16,06,13,13.80
2017,08,16,06,14,13.90
2017,08,16,06,15,13.90
2017,08,16,06,16,13.90
2017,08,16,06,17,13.90
2017,08,16,06,18,13.90
2017,08,16,06,19,13.90
2017,08,16,06,20,13.90
2017,08,16,06,21,13.80
2017,08,16,06,22,13.80
2017,08,16,06,23,13.80
2017,08,16,06,24,13.80
2017,08,16,06,25,13.70
2017,08,16,06,26,13.70
2017,08,16,06,27,13.70
2017,08,16,06,28,13.60
2017,08,16,06,29,13.60
2017,08,16,06,30,13.60
2017,08,16,06,31,13.50
2017,08,16,06,32,13.50
2017,08,16,06,33,13.50
2017,08,16,06,34,13.50
2017,08,16,06,35,13.50
2017,08,16,06,36,13.50
2017,08,16,06,37,13.50
2017,08,16,06,38,13.50
2017,08,16,06,39,13.50
2017,08,16,06,40,13.50
2017,08,16,06,41,13.50
2017,08,16,06,42,13.50
2017,08,16,06,43,13.50
2017,08,16,06,44,13.50
2017,08,16,06,45,13.50
2017,08,16,06,46,13.50
2017,08,16,06,47,13.60
2017,08,16,06,48,13.60
2017,08,16,06,49,13.60
2017,08,16,06,50,13.60
2017,08,16,06,51,13.60
2017,08,16,06,52,13.60
2017,08,16,06,53,13.60
2017,08,16,06,54,13.60
2017,08,16,06,55,13.70
2017,08,16,06,56,13.70
2017,08,16,06,57,13.70
2017,08,16,06,58,13.70
2017,08,16,06,59,13.70
2017,08,16,07,00,13.70
2017,08,16,07,01,13.70
2017,08,16,07,02,13.70
2017,08,16,07,03,13.80
2017,08,16,07,04,13.80
2017,08,16,07,05,13.80
2017,08,16,07,06,13.80
2017,08,16,07,07,13.80
2017,08,16,07,08,13.80
2017,08,16,07,09,13.80
2017,08,16,07,10,13.80
2017,08,16,07,11,13.80
2017,08,16,07,12,13.80
2017,08,16,07,13,13.80
2017,08,16,07,14,13.90
2017,08,16,07,15,13.90
2017,08,16,07,16,13.90
2017,08,16,07,17,14.00
2017,08,16,07,18,14.10
2017,08,16,07,19,14.10
2017,08,16,07,20,14.10
2017,08,16,07,21,14.20
2017,08,16,07,22,14.20
2017,08,16,07,23,14.30
2017,08,16,07,24,14.30
2017,08,16,07,25,14.40
2017,08,16,07,26,14.40
2017,08,16,07,27,14.40
2017,08,16,07,28,14.50
2017,08,16,07,29,14.50
2017,08,16,07,30,14.50
2017,08,16,07,31,14.60
2017,08,16,07,32,14.60
2017,08,16,07,33,14.70
2017,08,16,07,34,14.70
2017,08,16,07,35,14.70
2017,08,16,07,36,14.70
2017,08,16,07,37,14.70
2017,08,16,07,38,14.80
2017,08,16,07,39,14.80
2017,08,16,07,40,14.80
2017,08,16,07,41,14.90
2017,08,16,07,42,14.90
2017,08,16,07,43,14.90
2017,08,16,07,44,14.90
2017,08,16,07,45,14.90
2017,08,16,07,46,14.90
2017,08,16,07,47,15.00
2017,08,16,07,48,15.00
2017,08,16,07,49,15.00
2017,08,16,07,50,15.10
2017,08,16,07,51,15.10
2017,08,16,07,52,15.20
2017,08,16,07,53,15.20
2017,08,16,07,54,15.30
2017,08,16,07,55,15.30
2017,08,16,07,56,15.40
2017,08,16,07,57,15.40
2017,08,16,07,58,15.50
2017,08,16,07,59,15.60
2017,08,16,08,00,15.60
2017,08,16,08,01,15.70
2017,08,16,08,02,15.80
2017,08,16,08,03,15.90
2017,08,16,08,04,16.00
2017,08,16,08,05,16.10
2017,08,16,08,06,16.20
2017,08,16,08,07,16.40
2017,08,16,08,08,16.50
2017,08,16,08,09,16.60
2017,08,16,08,10,16.70
2017,08,16,08,11,16.80
2017,08,16,08,12,16.90
2017,08,16,08,13,17.00
2017,08,16,08,14,17.00
2017,08,16,08,15,17.10
2017,08,16,08,16,17.10
2017,08,16,08,17,17.10
2017,08,16,08,18,17.10
2017,08,16,08,19,17.10
2017,08,16,08,20,17.10
2017,08,16,08,21,17.20
2017,08,16,08,22,17.20
2017,08,16,08,23,17.30
2017,08,16,08,24,17.30
2017,08,16,08,25,17.40
2017,08,16,08,26,17.40
2017,08,16,08,27,17.40
2017,08,16,08,28,17.50
2017,08,16,08,29,17.50
2017,08,16,08,30,17.60
2017,08,16,08,31,17.60
2017,08,16,08,32,17.60
2017,08,16,08,33,17.60
2017,08,16,08,34,17.60
2017,08,16,08,35,17.60
2017,08,16,08,36,17.60
2017,08,16,08,37,17.60
2017,08,16,08,38,17.60
2017,08,16,08,39,17.70
2017,08,16,08,40,17.70
2017,08,16,08,41,17.70
2017,08,16,08,42,17.80
2017,08,16,08,43,17.80
2017,08,16,08,44,17.80
2017,08,16,08,45,17.80
2017,08,16,08,46,17.80
2017,08,16,08,47,17.70
2017,08,16,08,48,17.70
2017,08,16,08,49,17.70
2017,08,16,08,50,17.70
2017,08,16,08,51,17.70
2017,08,16,08,52,17.70
2017,08,16,08,53,17.70
2017,08,16,08,54,17.70
2017,08,16,08,55,17.60
2017,08,16,08,56,17.60
2017,08,16,08,57,17.60
2017,08,16,08,58,17.60
2017,08,16,08,59,17.60
2017,08,16,09,00,17.60
2017,08,16,09,01,17.60
2017,08,16,09,02,17.60
2017,08,16,09,03,17.60
2017,08,16,09,04,17.60
2017,08,16,09,05,17.60
2017,08,16,09,06,17.60
2017,08,16,09,07,17.70
2017,08,16,09,08,17.70
2017,08,16,09,09,17.80
2017,08,16,09,10,17.80
2017,08,16,09,11,17.80
2017,08,16,09,12,17.80
2017,08,16,09,13,17.80
2017,08,16,09,14,17.80
2017,08,16,09,15,17.90
2017,08,16,09,16,17.90
2017,08,16,09,17,17.90
2017,08,16,09,18,17.90
2017,08,16,09,19,17.90
2017,08,16,09,20,17.90
2017,08,16,09,21,17.90
2017,08,16,09,22,17.90
2017,08,16,09,23,17.90
2017,08,16,09,24,17.90
2017,08,16,09,25,17.90
2017,08,16,09,26,18.00
2017,08,16,09,27,18.00
2017,08,16,09,28,18.00
2017,08,16,09,29,18.10
2017,08,16,09,30,18.10
2017,08,16,09,31,18.10
2017,08,16,09,32,18.20
2017,08,16,09,33,18.20
2017,08,16,09,34,18.30
2017,08,16,09,35,18.30
2017,08,16,09,36,18.30
2017,08,16,09,37,18.40
2017,08,16,09,38,18.40
2017,08,16,09,39,18.60
2017,08,16,09,40,18.70
2017,08,16,09,41,18.70
2017,08,16,09,42,18.80
2017,08,16,09,43,18.80
2017,08,16,09,44,18.80
2017,08,16,09,45,18.90
2017,08,16,09,46,18.90
2017,08,16,09,47,19.00
2017,08,16,09,48,19.00
2017,08,16,09,49,19.00
2017,08,16,09,50,18.90
2017,08,16,09,51,18.90
2017,08,16,09,52,18.90
2017,08,16,09,53,18.90
2017,08,16,09,54,18.90
2017,08,16,09,55,18.80
2017,08,16,09,56,18.70
2017,08,16,09,57,18.60
2017,08,16,09,58,18.50
2017,08,16,09,59,18.40
2017,08,16,10,00,18.40
2017,08,16,10,01,18.40
2017,08,16,10,02,18.40
2017,08,16,10,03,18.40
2017,08,16,10,04,18.40
2017,08,16,10,05,18.40
2017,08,16,10,06,18.40
2017,08,16,10,07,18.40
2017,08,16,10,08,18.40
2017,08,16,10,09,18.40
2017,08,16,10,10,18.50
2017,08,16,10,11,18.60
2017,08,16,10,12,18.70
2017,08,16,10,13,18.80
2017,08,16,10,14,18.90
2017,08,16,10,15,18.90
2017,08,16,10,16,18.90
2017,08,16,10,17,18.90
2017,08,16,10,18,18.90
2017,08,16,10,19,18.90
2017,08,16,10,20,19.10
2017,08,16,10,21,19.10
2017,08,16,10,22,19.20
2017,08,16,10,23,19.20
2017,08,16,10,24,19.30
2017,08,16,10,25,19.50
2017,08,16,10,26,19.70
2017,08,16,10,27,19.80
2017,08,16,10,28,19.90
2017,08,16,10,29,19.80
2017,08,16,10,30,19.60
2017,08,16,10,31,19.60
2017,08,16,10,32,19.60
2017,08,16,10,33,19.60
2017,08,16,10,34,19.80
2017,08,16,10,35,19.90
2017,08,16,10,36,20.00
2017,08,16,10,37,20.10
2017,08,16,10,38,20.20
2017,08,16,10,39,20.20
2017,08,16,10,40,20.20
2017,08,16,10,41,20.30
2017,08,16,10,42,20.30
2017,08,16,10,43,20.30
2017,08,16,10,44,20.30
2017,08,16,10,45,20.20
2017,08,16,10,46,20.00
2017,08,16,10,47,19.80
2017,08,16,10,48,19.80
2017,08,16,10,49,19.80
2017,08,16,10,50,19.90
2017,08,16,10,51,20.00
2017,08,16,10,52,20.00
2017,08,16,10,53,20.10
2017,08,16,10,54,20.00
2017,08,16,10,55,19.80
2017,08,16,10,56,19.70
2017,08,16,10,57,19.60
2017,08,16,10,58,19.50
2017,08,16,10,59,19.50
2017,08,16,11,00,19.60
2017,08,16,11,01,19.70
2017,08,16,11,02,19.80
2017,08,16,11,03,19.90
2017,08,16,11,04,20.00
2017,08,16,11,05,20.00
2017,08,16,11,06,20.00
2017,08,16,11,07,19.90
2017,08,16,11,08,19.80
2017,08,16,11,09,19.70
2017,08,16,11,10,19.70
2017,08,16,11,11,19.70
2017,08,16,11,12,19.80
2017,08,16,11,13,19.80
2017,08,16,11,14,19.90
2017,08,16,11,15,19.90
2017,08,16,11,16,19.90
2017,08,16,11,17,19.90
2017,08,16,11,18,19.90
2017,08,16,11,19,19.80
2017,08,16,11,20,19.80
2017,08,16,11,21,19.70
2017,08,16,11,22,19.70
2017,08,16,11,23,19.70
2017,08,16,11,24,19.80
2017,08,16,11,25,19.80
2017,08,16,11,26,19.90
2017,08,16,11,27,20.00
2017,08,16,11,28,20.00
2017,08,16,11,29,20.00
2017,08,16,11,30,19.90
2017,08,16,11,31,19.90
2017,08,16,11,32,19.80
2017,08,16,11,33,19.90
2017,08,16,11,34,19.90
2017,08,16,11,35,19.90
2017,08,16,11,36,20.00
2017,08,16,11,37,20.10
2017,08,16,11,38,20.30
2017,08,16,11,39,20.50
2017,08,16,11,40,20.60
2017,08,16,11,41,20.80
2017,08,16,11,42,20.90
2017,08,16,11,43,21.00
2017,08,16,11,44,21.10
2017,08,16,11,45,21.10
2017,08,16,11,46,21.20
2017,08,16,11,47,21.10
2017,08,16,11,48,21.10
2017,08,16,11,49,21.20
2017,08,16,11,50,21.20
2017,08,16,11,51,21.20
2017,08,16,11,52,21.20
2017,08,16,11,53,21.20
2017,08,16,11,54,21.20
2017,08,16,11,55,21.10
2017,08,16,11,56,21.00
2017,08,16,11,57,20.90
2017,08,16,11,58,20.90
2017,08,16,11,59,20.80
2017,08,16,12,00,20.70
2017,08,16,12,01,20.60
2017,08,16,12,02,20.50
2017,08,16,12,03,20.40
2017,08,16,12,04,20.30
2017,08,16,12,05,20.30
2017,08,16,12,06,20.30
2017,08,16,12,07,20.30
2017,08,16,12,08,20.30
2017,08,16,12,09,20.30
2017,08,16,12,10,20.30
2017,08,16,12,11,20.20
2017,08,16,12,12,20.10
2017,08,16,12,13,20.10
2017,08,16,12,14,20.10
2017,08,16,12,15,20.10
2017,08,16,12,16,20.10
2017,08,16,12,17,20.10
2017,08,16,12,18,20.20
2017,08,16,12,19,20.20
2017,08,16,12,20,20.20
2017,08,16,12,21,20.30
2017,08,16,12,22,20.40
2017,08,16,12,23,20.50
2017,08,16,12,24,20.60
2017,08,16,12,25,20.70
2017,08,16,12,26,20.60
2017,08,16,12,27,20.60
2017,08,16,12,28,20.70
2017,08,16,12,29,20.80
2017,08,16,12,30,20.90
2017,08,16,12,31,20.90
2017,08,16,12,32,20.80
2017,08,16,12,33,20.80
2017,08,16,12,34,20.60
2017,08,16,12,35,20.60
2017,08,16,12,36,20.50
2017,08,16,12,37,20.50
2017,08,16,12,38,20.60
2017,08,16,12,39,20.60
2017,08,16,12,40,20.70
2017,08,16,12,41,20.80
2017,08,16,12,42,20.90
2017,08,16,12,43,20.90
2017,08,16,12,44,20.90
2017,08,16,12,45,20.90
2017,08,16,12,46,20.90
2017,08,16,12,47,20.90
2017,08,16,12,48,20.90
2017,08,16,12,49,20.90
2017,08,16,12,50,20.90
2017,08,16,12,51,21.00
2017,08,16,12,52,20.90
2017,08,16,12,53,20.90
2017,08,16,12,54,20.80
2017,08,16,12,55,20.70
2017,08,16,12,56,20.60
2017,08,16,12,57,20.60
2017,08,16,12,58,20.50
2017,08,16,12,59,20.40
2017,08,16,13,00,20.40
2017,08,16,13,01,20.30
2017,08,16,13,02,20.30
2017,08,16,13,03,20.30
2017,08,16,13,04,20.20
2017,08,16,13,05,20.20
2017,08,16,13,06,20.20
2017,08,16,13,07,20.20
2017,08,16,13,08,20.30
2017,08,16,13,09,20.50
2017,08,16,13,10,20.60
2017,08,16,13,11,20.70
2017,08,16,13,12,20.80
2017,08,16,13,13,20.80
2017,08,16,13,14,20.80
2017,08,16,13,15,20.80
2017,08,16,13,16,20.80
2017,08,16,13,17,20.70
2017,08,16,13,18,20.60
2017,08,16,13,19,20.60
2017,08,16,13,20,20.60
2017,08,16,13,21,20.60
2017,08,16,13,22,20.60
2017,08,16,13,23,20.60
2017,08,16,13,24,20.60
2017,08,16,13,25,20.60
2017,08,16,13,26,20.70
2017,08,16,13,27,20.70
2017,08,16,13,28,20.70
2017,08,16,13,29,20.80
2017,08,16,13,30,20.80
2017,08,16,13,31,20.90
2017,08,16,13,32,21.10
2017,08,16,13,33,21.20
2017,08,16,13,34,21.30
2017,08,16,13,35,21.30
2017,08,16,13,36,21.30
2017,08,16,13,37,21.40
2017,08,16,13,38,21.40
2017,08,16,13,39,21.30
2017,08,16,13,40,21.30
2017,08,16,13,41,21.30
2017,08,16,13,42,21.40
2017,08,16,13,43,21.50
2017,08,16,13,44,21.60
2017,08,16,13,45,21.50
2017,08,16,13,46,21.40
2017,08,16,13,47,21.20
2017,08,16,13,48,21.10
2017,08,16,13,49,21.10
2017,08,16,13,50,21.10
2017,08,16,13,51,21.10
2017,08,16,13,52,21.20
2017,08,16,13,53,21.20
2017,08,16,13,54,21.30
2017,08,16,13,55,21.30
2017,08,16,13,56,21.30
2017,08,16,13,57,21.20
2017,08,16,13,58,21.10
2017,08,16,13,59,21.00
2017,08,16,14,00,21.00
2017,08,16,14,01,21.00
2017,08,16,14,02,21.10
2017,08,16,14,03,21.30
2017,08,16,14,04,21.30
2017,08,16,14,05,21.30
2017,08,16,14,06,21.30
2017,08,16,14,07,21.20
2017,08,16,14,08,21.20
2017,08,16,14,09,21.30
2017,08,16,14,10,21.30
2017,08,16,14,11,21.40
2017,08,16,14,12,21.50
2017,08,16,14,13,21.60
2017,08,16,14,14,21.60
2017,08,16,14,15,21.50
2017,08,16,14,16,21.50
2017,08,16,14,17,21.40
2017,08,16,14,18,21.30
2017,08,16,14,19,21.40
2017,08,16,14,20,21.40
2017,08,16,14,21,21.40
2017,08,16,14,22,21.50
2017,08,16,14,23,21.60
2017,08,16,14,24,21.60
2017,08,16,14,25,21.50
2017,08,16,14,26,21.40
2017,08,16,14,27,21.30
2017,08,16,14,28,21.30
2017,08,16,14,29,21.30
2017,08,16,14,30,21.20
2017,08,16,14,31,21.30
2017,08,16,14,32,21.30
2017,08,16,14,33,21.30
2017,08,16,14,34,21.40
2017,08,16,14,35,21.40
2017,08,16,14,36,21.30
2017,08,16,14,37,21.30
2017,08,16,14,38,21.40
2017,08,16,14,39,21.50
2017,08,16,14,40,21.60
2017,08,16,14,41,21.80
2017,08,16,14,42,21.90
2017,08,16,14,43,22.00
2017,08,16,14,44,22.00
2017,08,16,14,45,22.10
2017,08,16,14,46,22.00
2017,08,16,14,47,21.90
2017,08,16,14,48,21.80
2017,08,16,14,49,21.80
2017,08,16,14,50,21.80
2017,08,16,14,51,21.80
2017,08,16,14,52,21.90
2017,08,16,14,53,21.90
2017,08,16,14,54,21.90
2017,08,16,14,55,21.90
2017,08,16,14,56,21.80
2017,08,16,14,57,21.70
2017,08,16,14,58,21.60
2017,08,16,14,59,21.60
2017,08,16,15,00,21.70
2017,08,16,15,01,21.80
2017,08,16,15,02,21.80
2017,08,16,15,03,21.70
2017,08,16,15,04,21.60
2017,08,16,15,05,21.60
2017,08,16,15,06,21.70
2017,08,16,15,07,21.80
2017,08,16,15,08,22.00
2017,08,16,15,09,22.20
2017,08,16,15,10,22.30
2017,08,16,15,11,22.30
2017,08,16,15,12,22.20
2017,08,16,15,13,22.30
2017,08,16,15,14,22.30
2017,08,16,15,15,22.20
2017,08,16,15,16,22.00
2017,08,16,15,17,21.90
2017,08,16,15,18,21.70
2017,08,16,15,19,21.60
2017,08,16,15,20,21.50
2017,08,16,15,21,21.50
2017,08,16,15,22,21.50
2017,08,16,15,23,21.40
2017,08,16,15,24,21.40
2017,08,16,15,25,21.40
2017,08,16,15,26,21.40
2017,08,16,15,27,21.40
2017,08,16,15,28,21.40
2017,08,16,15,29,21.50
2017,08,16,15,30,21.70
2017,08,16,15,31,21.90
2017,08,16,15,32,22.00
2017,08,16,15,33,22.20
2017,08,16,15,34,22.20
2017,08,16,15,35,22.30
2017,08,16,15,36,22.20
2017,08,16,15,37,22.20
2017,08,16,15,38,22.10
2017,08,16,15,39,22.00
2017,08,16,15,40,21.90
2017,08,16,15,41,22.00
2017,08,16,15,42,22.00
2017,08,16,15,43,22.10
2017,08,16,15,44,22.10
2017,08,16,15,45,22.20
2017,08,16,15,46,22.20
2017,08,16,15,47,22.10
2017,08,16,15,48,22.10
2017,08,16,15,49,22.10
2017,08,16,15,50,22.10
2017,08,16,15,51,22.10
2017,08,16,15,52,22.10
2017,08,16,15,53,22.20
2017,08,16,15,54,22.30
2017,08,16,15,55,22.30
2017,08,16,15,56,22.30
2017,08,16,15,57,22.30
2017,08,16,15,58,22.30
2017,08,16,15,59,22.20
2017,08,16,16,00,22.10
2017,08,16,16,01,22.00
2017,08,16,16,02,21.90
2017,08,16,16,03,21.90
2017,08,16,16,04,22.00
2017,08,16,16,05,22.10
2017,08,16,16,06,22.20
2017,08,16,16,07,22.30
2017,08,16,16,08,22.30
2017,08,16,16,09,22.30
2017,08,16,16,10,22.30
2017,08,16,16,11,22.30
2017,08,16,16,12,22.30
2017,08,16,16,13,22.30
2017,08,16,16,14,22.30
2017,08,16,16,15,22.30
2017,08,16,16,16,22.30
2017,08,16,16,17,22.40
2017,08,16,16,18,22.50
2017,08,16,16,19,22.50
2017,08,16,16,20,22.40
2017,08,16,16,21,22.40
2017,08,16,16,22,22.40
2017,08,16,16,23,22.40
2017,08,16,16,24,22.40
2017,08,16,16,25,22.40
2017,08,16,16,26,22.40
2017,08,16,16,27,22.40
2017,08,16,16,28,22.40
2017,08,16,16,29,22.50
2017,08,16,16,30,22.60
2017,08,16,16,31,22.70
2017,08,16,16,32,22.80
2017,08,16,16,33,22.90
2017,08,16,16,34,22.90
2017,08,16,16,35,22.90
2017,08,16,16,36,22.90
2017,08,16,16,37,22.90
2017,08,16,16,38,22.90
2017,08,16,16,39,23.00
2017,08,16,16,40,23.00
2017,08,16,16,41,23.00
2017,08,16,16,42,23.10
2017,08,16,16,43,23.20
2017,08,16,16,44,23.30
2017,08,16,16,45,23.40
2017,08,16,16,46,23.50
2017,08,16,16,47,23.60
2017,08,16,16,48,23.50
2017,08,16,16,49,23.40
2017,08,16,16,50,23.20
2017,08,16,16,51,23.10
2017,08,16,16,52,23.00
2017,08,16,16,53,22.90
2017,08,16,16,54,22.80
2017,08,16,16,55,22.80
2017,08,16,16,56,22.70
2017,08,16,16,57,22.60
2017,08,16,16,58,22.50
2017,08,16,16,59,22.50
2017,08,16,17,00,22.50
2017,08,16,17,01,22.40
2017,08,16,17,02,22.40
2017,08,16,17,03,22.40
2017,08,16,17,04,22.50
2017,08,16,17,05,22.50
2017,08,16,17,06,22.50
2017,08,16,17,07,22.60
2017,08,16,17,08,22.70
2017,08,16,17,09,22.80
2017,08,16,17,10,22.80
2017,08,16,17,11,22.80
2017,08,16,17,12,22.80
2017,08,16,17,13,22.90
2017,08,16,17,14,22.90
2017,08,16,17,15,22.90
2017,08,16,17,16,22.80
2017,08,16,17,17,22.80
2017,08,16,17,18,22.80
2017,08,16,17,19,22.80